Погода Маслянино

Погода Маслянино : погода сейчас, прогноз погоды и архив. Всё, что Вы хотите узнать о погоде Маслянино!

Хотите узнать прогноз погоды Маслянино? Тогда Вам сюда: Погода Маслянино

Поиск расширенной информации на нашем сайте:

Другие новости

Новости СМИ2

Главная страница сайта

Новости сайта

03.07.2017

Напоминаем, что на нашем специализированном сайте Метеоцентр.Азия вы можете получить высокодетализированные автоматические прогнозы погоды по пунктам России, СНГ и мира в авиационном формате (включающие направление и скорость ветра, видимость, явления погоды, количество и форму облачности, нижнюю и верхнюю границу облачности).

Рекомендуем: Ремонт - Евроремонт офиса, екатеринбург

Погода Маслянино - сегодня

Время (UTC), дата Ветер
(°,м/с) 
Видим.   Явления Облачность Т
(°С)
Тd
(°С)
f(%) Тe
(°С)
Pmin
(гПа)
dP
(гПа)
Po
(мм)
O2
(г/м3)
Тmin Tmax R s Состояние
почвы
15 19.08.17 320 (СЗ) 20000 м    8/8 600 м 
[Sc]
+12.2 +8.9 80 +13  1019.3  1.1  747  286           
18 19.08.17 330 (СЗ) 10 км    ясно 
+9 +9 100 +10  1019.9  0.4  747  290           
21 19.08.17 тихо ()   10 км    ясно 
+5.3 +5.3 100 +5  1020.8  0.5  747  294           
00 20.08.17 тихо ()   0500 м  туман  ясно 
+4.3 +4.3 100 +4  1021.7  0.5  748  296  +3.6        влажная 
03 20.08.17 030 (СВ) 20000 м  {туман}  8/8 600 м 
[Sc]
+10.4 +10.4 100 +14  1021.9  0.7  748  289           
06 20.08.17 330 (СЗ) 20000 м  {туман}  8/4 600 м верхняя 
[Cu med, cong|Ci fib]
+15.6 +9.1 65 +16  1020.8  -0.6  748  283           
09 20.08.17 310 (СЗ) 1{10}  20000 м  в посл. час ливневой дождь  8/8 600 м 
[Cu med, cong]
+18.1 +9.1 56 +20  1020  -0.6  747  281           
12 20.08.17 220 (ЮЗ) 3{10}  20000 м  {ливн. осадки}  8/8 600 м верхняя 
[Cu med, cong|Ci fib]
+14.4 +10.4 77 +17  1020.6  0.3  748  284    +18.3     
15 20.08.17 030 (СВ) 20000 м    8/0 верхняя 
[Ci fib]
+10.3 +8.6 89 +11  1021.9  0.9  748  289           
18 20.08.17 тихо ()   0500 м  туман  8/0 верхняя 
[Ci fib]
+6.1 +6.1 100 +6  1022.5  0.2  749  294           
21 20.08.17 тихо ()   4000 м  в посл. час туман  10/0 средняя 
[Ac und]
+7.1 +7.1 100 +7  1021.9  -0.5  748  293           
00 21.08.17 тихо ()   20000 м  {туман}  9/0 средняя 
[Ac trans]
+7.9 +7.9 100 +8  1022.2  0.4  748  292  +6.1        влажная 
03 21.08.17 080 (В) 20000 м    10/6 50 м средняя 
[Sc|Ac und]
+11.8 +11.8 100 +17  1022.3  0.5  749  287           
06 21.08.17 270 (З) 20000 м    10/8 600 м средняя, верхняя 
[Cu med, cong|Ac und|Ci fib]
+17.5 +9.3 59 +18  1021.5  -0.4  749  282           
09 21.08.17 060 (СВ) 1{13}  10 км  слаб. ливневой дождь  10/10 300 м кучево-дожд. 
[Cb calv]
+14.7 +10.1 74 +17  1021.2  -0.5  748  284           
12 21.08.17 230 (ЮЗ) 1{13}  20000 м  {ливн. осадки}  9/6 600 м верхняя 
[Cu Sc|Ci fib]
+15.7 +12.1 79 +21  1021.4  0.3  748  283    +19.4     
15 21.08.17 тихо ()   20000 м    4/4 600 м 
[Sc]
+10.7 +10.7 100 +13  1022.9  749  288           
18 21.08.17 тихо ()   0500 м  туман  ясно 
+9.1 +9.1 100 +9  1023.2  0.2  749  291           
21 21.08.17 тихо ()   0500 м  туман  ясно 
+8.4 +8.4 100 +8  1023.2  -0.1  749  291           
00 22.08.17 080 (В) 0500 м  туман  ?/?  
+6.9 +6.9 100 +8  1024  0.7  750  293  +6.9        мокрая 
03 22.08.17 110 (В) 4000 м  дымка{туман}  10/0 верхняя 
[Ci fib]
+9.3 +9.3 100 +10  1024.1  0.3  750  291  +6.7         
06 22.08.17 160 (Ю) 20000 м  {туман}  10/4 600 м средняя, верхняя 
[Sc|Ac trans|Ci fib]
+19 +9.8 55 +22  1022.5  -0.8  749  281           
09 22.08.17 260 (З) 20000 м    10/6 600 м средняя, верхняя 
[Cu hum|Ac trans|Ci fib]
+20.6 +10.6 53 +23  1020.8  -1.5  748  278           
12 22.08.17 220 (ЮЗ) 20000 м    8/6 600 м средняя 
[Sc|Ac trans]
+19.2 +12.7 66 +25  1019.6  -1.3  747  279    +21.2       
15 22.08.17 240 (ЮЗ) 20000 м    10/8 600 м верхняя 
[Sc|Ci fib]
+16.3 +12.6 79 +23  1019.5  -0.3  747  282           
Время (UTC), дата Ветер
(°,м/с) 
Видим.   Явления Облачность Т
(°С)
Тd
(°С)
f(%) Тe
(°С)
Pmin
(гПа)
dP
(гПа)
Po
(мм)
O2
(г/м3)
Тmin Tmax R s Состояние
почвы

Для получения пояснительной информации подведите курсор к названию столбца.

ПОГОДА Маслянино - архив

Всё, что Вы хотите узнать о погоде Маслянино - удобно и подробно!

Выберите нужную дату (начиная с 1 января 2015* года) и нажмите кнопку "Найти".
Будут отображены архивные сводки погоды по пункту Маслянино, начиная с указанной даты.


Отображать данные в формате CSV (для использования в таблицах Excel)


Внимание! Наш архив погоды предназначен исключительно для личного некоммерческого использования в познавательных целях. Если Вам необходимы официальные справки о состоянии погоды (для производственных, юридических, коммерческих и т.п. целей), обращайтесь в органы Росгидромета.

*Примечание: данная дата относится к архиву по метеостанциям СССР (Россия, СНГ, Балтия).
Архив по метеостанциям Зарубежной Европы и Азии (кроме Китая) хранится 10 дней, по другим регионам земного шара (Китай, Африка, Америка, Австралия, Океания) - 1 день.

Маслянино - район местоположения метеостанции


Название, широта, долгота, высота метеостанции:
Маслянино 54.3°ш. 84.2°д. 198 м над ур. моря [Российская Федерация]

Дополнительная информация

В oтличие oт бoльшинства пoгoдных сайтoв мы публикуем пoдрoбную метеoинфoрмацию в детальнoм прoфессиoнальнoм фoрмате.

Характеристики температуры и влажнoсти вoздуха измеряются на высoте 2 м в тени вдали oт зданий и деревьев.
Скoрoсть ветра измеряется на высoте 10 м (на урoвне рoста челoвека скoрoсть ветра ниже в 1.5-2 раза). Если метеoстанция нахoдится в гoрoде или в лесу, тo скoрoсть ветра занижена на 2-4 м/с пo сравнению с oткрытым местoм. Скoрoсть ветра над акватoриями крупных рек и oзёр, а также на вершинах хoлмoв на 2-5 м/с выше, чем в oбычных услoвиях.
Атмoсфернoе давление в разных тoчках местнoсти мoжет значительнo oтличаться oт давления на метеoстанции, в зависимoсти oт услoвий рельефа (при пoдъёме на 10 м давление пoнижается примернo на 1 мм рт.ст.).